[Iaude] MPEC H101: 2024 HY1 [a=1.30,e=0.34,i=2.3,H=27.4]
    mpec at cfa.harvard.edu 
    mpec at cfa.harvard.edu
       
    Tue Apr 30 12:53:27 EDT 2024
    
    
  
M.P.E.C. 2024-H101                               Issued 2024 April 30, 16:51 UT
     The Minor Planet Electronic Circulars contain information on unusual
         minor planets, routine data on comets and natural satellites,
         and occasional editorial announcements.  They are published
    on behalf of Division F of the International Astronomical Union by the
          Minor Planet Center, Smithsonian Astrophysical Observatory,
                          Cambridge, MA 02138, U.S.A.
			  
             Prepared using the Tamkin Foundation Computer Network
                              MPC at CFA.HARVARD.EDU
            URL https://www.minorplanetcenter.net/    ISSN 1523-6714
                                    2024 HY1                                    
Observations:
     K24H01Y*1C2024 04 29.31732614 38 51.248-19 55 01.67         18.76GVEH101G96
     K24H01Y 1C2024 04 29.32244814 38 52.138-19 55 33.60         19.02GVEH101G96
     K24H01Y 1C2024 04 29.32434 14 38 52.47 -19 55 46.0          18.9 GVEH101G96
     K24H01Y 1C2024 04 29.32757114 38 53.038-19 56 06.32         19.32GVEH101G96
     K24H01Y 1C2024 04 29.32947 14 38 53.38 -19 56 17.8          19.4 GVEH101G96
     K24H01Y 1C2024 04 29.33271014 38 53.941-19 56 38.22         19.08GVEH101G96
     K24H01Y 1C2024 04 29.33460 14 38 54.28 -19 56 50.0          19.2 GVEH101G96
     K24H01Y KC2024 04 29.35553814 38 57.998-19 58 58.15         18.79GVEH101I52
     K24H01Y KC2024 04 29.35612414 38 58.088-19 59 01.50         19.17GVEH101I52
     K24H01Y KC2024 04 29.35670414 38 58.168-19 59 05.64         18.66GVEH101I52
     K24H01Y KC2024 04 29.35728314 38 58.308-19 59 08.81         19.18GVEH101I52
     K24H01Y 0B2024 04 29.89244 14 41 09.847-20 39 28.04         20.8 VZEH101M49
     K24H01Y 0B2024 04 29.89832 14 41 10.414-20 39 52.09         21.1 VZEH101M49
     K24H01Y KB2024 04 30.05062514 41 27.44 -20 52 54.0          19.8 GXEH101958
     K24H01Y KB2024 04 30.05580314 41 27.90 -20 53 11.7                XEH101958
     K24H01Y KB2024 04 30.06097114 41 28.31 -20 53 29.4          19.7 GXEH101958
     K24H01Y KC2024 04 30.11764 14 42 49.39 -21 00 25.6          19.2 rqEH101X74
     K24H01Y KC2024 04 30.12679 14 42 50.22 -21 01 08.1          19.5 rqEH101X74
     K24H01Y KC2024 04 30.13556 14 42 50.90 -21 01 46.6          19.6 rqEH101X74
     K24H01Y KC2024 04 30.24200014 43 22.23 -21 14 25.2          19.6 GXEH101858
     K24H01Y KC2024 04 30.26270714 43 24.30 -21 15 55.3          19.7 GXEH101858
     K24H01Y KC2024 04 30.28299514 43 26.26 -21 17 21.7          20.1 GXEH101858
     K24H01Y KC2024 04 30.37074214 43 35.861-21 22 56.93               VEH101I52
     K24H01Y KC2024 04 30.37244714 43 36.008-21 23 03.05         19.17GVEH101I52
     K24H01Y KC2024 04 30.37415314 43 36.188-21 23 09.53         19.58GVEH101I52
     K24H01Y KC2024 04 30.39781914 43 38.503-21 24 34.99         19.68GVEH101I52
     K24H01Y KC2024 04 30.40577514 43 39.331-21 25 03.07         19.36GVEH101I52
     K24H01Y KC2024 04 30.40918514 43 39.713-21 25 14.84         19.55GVEH101I52
Observer details:
858 Tebbutt Observatory, Edgewood.  Observer F. B. Zoltowski.  0.16-m f/7
    Refractor + CCD.
958 Observatoire de Dax.  Observer P. Dupouy.  0.50-m f/4.5 Reflector + CMO.
G96 Mt. Lemmon Survey.  Observer J. B. Fazekas.  Measurers T. Beuden, V. F.
    Carvajal, D. Fay, J. B. Fazekas, D. C. Fuls, A. R. Gibbs, A. D. Grauer, H.
    Groeller, J. K. Hogan, R. A. Kowalski, S. M. Larson, G. J. Leonard, D.
    Rankin, R. L. Seaman, F. C. Shelly, K. W. Wierzchos, B. Gray.  1.5-m
    reflector + 10K CCD.
I52 Steward Observatory, Mt. Lemmon Station.  Observers R. A. Kowalski, V. F.
    Carvajal, G. J. Leonard.  Measurers T. Beuden, V. F. Carvajal, D. Fay, J.
    B. Fazekas, D. C. Fuls, A. R. Gibbs, A. D. Grauer, H. Groeller, J. K.
    Hogan, R. A. Kowalski, S. M. Larson, G. J. Leonard, D. Rankin, R. L.
    Seaman, F. C. Shelly, K. W. Wierzchos.  1.0-m prime focus + CCD.
M49 IAS Remote Observatory, Hakos.  Observers D. Husar, M. Junius.  Measurer
    D. Husar.  0.25-m f/4.5 reflector + CMO.
X74 Observatorio Campo dos Amarais.  Observer L. S. Amaral.  0.31-m f/3.4
    Newtonian + CCD.
Orbital elements:
2024 HY1                                                 Earth MOID = 0.0018 AU
Epoch 2024 Mar. 31.0 TT = JDT 2460400.5                 Bell                    
M  16.99507              (2000.0)            P               Q                  
n   0.66717607     Peri.  112.43391     -0.86686040     -0.49796468             
a   1.2971068      Node    37.71270     +0.44165416     -0.78951950             
e   0.3369189      Incl.    2.26458     +0.23128910     -0.35873408             
P   1.48           H   27.43          G   0.15           U   7                  
Residuals in seconds of arc
240429 G96  0.5+  0.1-    240429 I52  0.1+  0.1-    240430 858  0.0   0.2-
240429 G96  0.2+  0.4+    240429 M49(0.19- 0.05+)   240430 858  0.3+  0.9-
240429 G96  0.2+  0.0     240429 M49(0.19- 0.05+)   240430 I52  0.1+  0.1+
240429 G96  0.2+  0.1-    240430 958(0.22- 0.14+)   240430 I52  0.1-  0.3+
240429 G96  0.3+  0.3+    240430 958(0.22- 0.14+)   240430 I52  0.2+  0.1+
240429 G96  0.1+  0.1+    240430 958(0.22- 0.14+)   240430 I52  0.0   0.1+
240429 G96  0.2+  0.1+    240430 X74  0.2-  0.2+    240430 I52  0.0   0.1+
240429 I52  0.1+  0.1+    240430 X74  0.4+  0.6-    240430 I52  0.3+  0.2+
240429 I52  0.1-  0.3+    240430 X74  0.5-  0.4+
240429 I52  0.4-  0.4-    240430 858  0.1+  0.0
Ephemeris:
2024 HY1                 a,e,i = 1.30, 0.34, 2                   q = 0.8601
Date    TT    R. A. (2000) Decl.     Delta      r    Elong.  Phase     V
2024 03 31    02 53 43.1 +25 25 46   0.1295  0.9017    38.8   136.0    29.1
...
2024 04 15    03 07 39.7 +28 08 08   0.05146 0.9585    28.8   149.7    29.3
...
2024 04 23    03 44 21.7 +36 27 05   0.01221 0.9952    33.0   146.6    25.7
...
2024 04 29    14 36 52.1 -19 11 49   0.01784 1.0248   174.6     5.3    19.2
2024 04 30    14 42 15.2 -20 51 29   0.02270 1.0298   173.2     6.7    19.8
2024 05 01    14 45 46.6 -21 55 18   0.02758 1.0349   172.5     7.3    20.2
...
2024 05 07    14 54 09.1 -24 20 41   0.05740 1.0660   172.4     7.2    21.9
...
2024 05 15    14 57 30.4 -25 02 34   0.09903 1.1087   170.6     8.5    23.2
...
2024 05 30    15 02 45.4 -25 05 54   0.1860  1.1903   160.2    16.8    25.1
M. P. C. Staff               (C) Copyright 2024 MPC           M.P.E.C. 2024-H101
    
    
More information about the Iaude
mailing list